Wind_Speed
11 11 12 12 11 10 9 9 8 9 10 9 10 14 15 14 14 14 12 9 8 10 11 11 12 14 15 16 17 18 20 21 22 24 25 25 24 24 22 20 19 20 21 23 23 22 22 22 22 22 21 21 21 18 16 15 14 13 14 13 14 15 15 16 17 17 17 16 17 17 16 16 16 17 17 18 17 17 18 18 19 20 21 22 23 24
10 10 12 11 8 7 6 7 7 8 10 10 12 15 16 17 16 15 12 10 12 13 11 12 14 15 16 18 18 18 19 21 22 23 23 23 23 24 23 21 21 22 23 24 24 23 23 24 24 22 21 22 22 19 17 16 15 15 14 14 15 15 15 16 17 18 17 17 18 17 17 17 17 17 17 18 18 17 18 18 19 19 20 21 22 23
7 8 9 7 4 5 7 8 8 10 12 13 14 16 17 17 15 15 14 14 16 15 12 11 13 15 16 17 18 18 18 20 21 22 21 21 23 24 24 23 24 24 25 25 25 24 24 24 23 22 21 21 21 19 18 17 16 16 15 15 15 15 16 16 17 17 18 18 19 19 19 18 18 18 18 18 18 18 18 18 19 20 21 21 21 22
5 5 5 4 4 6 10 10 10 11 13 14 14 16 18 18 16 17 18 18 18 16 13 13 14 16 18 18 17 15 15 18 21 22 21 22 23 24 24 24 24 24 25 25 25 24 23 22 22 21 19 19 19 20 19 17 17 17 17 16 16 15 16 17 17 17 18 19 20 20 20 20 19 19 19 19 18 18 18 19 19 19 20 21 20 21
5 6 5 5 7 9 11 10 9 10 12 12 14 16 18 18 18 19 19 18 18 18 15 15 17 18 18 18 16 15 16 18 21 22 21 21 22 23 24 24 24 25 25 25 25 23 21 20 20 18 17 17 18 19 18 16 17 18 17 17 16 16 16 17 17 17 18 19 20 21 21 21 21 20 20 20 19 18 18 19 19 19 19 20 20 21
5 5 6 7 7 8 11 10 9 9 10 10 11 13 16 16 16 17 16 14 14 15 16 17 17 18 19 19 18 18 19 19 19 19 17 18 20 22 24 25 25 25 25 25 24 21 19 18 17 16 16 18 18 17 16 16 17 18 18 17 17 16 17 18 17 17 18 19 20 21 21 22 23 22 21 20 20 19 18 19 19 20 19 19 20 20
2 3 5 7 6 7 9 8 8 8 8 8 8 9 12 12 13 14 12 11 12 13 16 18 18 19 21 21 20 20 19 18 17 16 16 18 21 23 24 25 25 25 25 25 23 19 16 15 16 16 16 18 18 18 17 17 17 18 18 18 17 16 16 17 17 17 18 18 19 20 21 22 23 23 22 21 20 20 19 19 19 20 20 20 20 20
1 3 4 4 4 4 5 5 6 7 8 9 6 7 10 9 10 12 12 13 13 13 15 18 19 20 21 21 20 20 18 16 16 16 17 19 21 22 24 24 24 25 26 25 21 17 15 14 14 15 16 17 18 18 19 19 19 19 19 18 17 16 16 17 17 17 18 18 18 18 19 21 23 23 23 21 21 21 21 20 20 20 20 20 20 21
4 5 5 4 4 2 3 5 6 7 9 10 7 8 11 9 10 12 12 13 14 13 15 17 18 19 20 20 20 18 16 15 16 17 18 20 22 24 25 25 25 25 26 23 18 16 15 13 12 13 15 16 17 18 20 21 20 19 18 17 17 16 16 17 17 17 17 18 18 18 19 20 22 23 22 21 20 21 22 21 21 20 19 19 19 20
5 6 7 7 5 4 5 7 8 8 10 11 9 9 11 10 11 11 11 13 14 13 14 16 16 16 18 19 19 18 16 15 16 18 19 21 23 24 24 25 25 25 25 21 17 16 14 12 13 15 16 17 18 20 21 21 20 18 16 15 17 17 16 17 17 17 17 18 19 19 19 19 20 21 20 20 20 21 22 21 21 20 19 18 18 19
5 5 9 9 7 7 7 8 9 8 9 11 10 10 11 11 11 10 9 12 14 14 14 15 15 16 17 18 18 17 16 16 17 19 20 21 22 22 22 23 23 23 24 20 16 16 14 13 15 17 17 18 19 20 20 18 17 16 15 15 17 17 17 17 17 17 17 18 19 20 19 19 19 19 19 19 20 21 21 21 22 21 20 20 19 20
6 6 8 8 7 8 7 9 10 8 8 10 10 9 11 11 10 10 9 11 13 14 15 15 16 17 17 18 17 16 15 17 18 20 21 22 21 20 21 22 22 22 22 18 15 15 14 14 16 18 19 19 18 18 17 16 14 14 15 15 16 16 17 18 17 17 17 18 20 20 20 19 19 19 19 21 21 22 21 21 22 22 22 22 22 22
8 7 5 5 8 8 6 8 11 11 10 11 10 9 10 10 10 11 11 12 14 15 15 16 17 17 17 18 17 16 17 18 19 20 22 21 20 20 20 21 21 21 20 17 14 15 14 15 16 17 19 19 17 16 15 14 13 13 13 14 16 17 18 18 17 17 17 18 20 21 21 20 21 21 22 23 23 22 21 21 22 23 23 23 23 23
10 9 5 5 7 7 6 9 11 11 11 11 11 9 9 8 9 11 11 12 14 14 14 16 17 17 17 17 18 19 19 20 20 21 21 21 20 19 19 20 20 20 19 16 14 14 14 15 16 18 19 18 16 15 15 14 13 12 12 13 15 17 18 18 18 17 17 19 20 21 22 23 23 24 24 25 24 23 23 22 22 22 23 24 24 24
11 10 8 8 7 5 6 8 10 9 9 11 11 9 9 8 9 10 10 10 12 13 14 17 18 18 18 19 20 21 20 20 20 20 19 19 19 18 18 19 19 19 19 17 14 14 14 15 17 19 19 18 17 15 15 15 14 12 12 14 16 18 18 19 18 18 18 19 21 21 22 23 25 26 26 26 26 25 24 24 24 23 23 23 24 24
13 11 10 9 7 6 7 8 9 8 9 11 11 10 10 9 9 9 10 10 11 13 15 17 18 20 20 21 21 21 20 20 19 19 19 19 18 18 19 19 18 18 19 18 14 12 14 15 18 19 19 19 18 16 15 16 16 15 14 15 17 18 18 19 19 19 19 20 21 21 22 23 24 26 26 26 27 26 26 25 24 24 23 22 23 24
14 12 11 9 8 8 10 10 10 9 10 11 11 12 11 10 10 10 9 9 10 13 15 16 18 20 21 21 21 21 20 20 20 19 19 19 19 19 19 19 17 17 17 18 16 12 11 14 17 19 20 19 19 18 16 16 17 17 17 17 18 19 19 20 21 21 21 22 22 22 22 23 24 25 25 25 26 26 26 25 24 23 23 22 22 23
14 13 11 11 10 10 10 11 11 10 10 11 10 11 11 10 10 10 9 9 8 12 16 17 18 20 21 21 21 21 20 20 19 18 17 18 19 18 18 18 17 16 16 18 18 15 12 12 15 17 18 17 17 17 18 18 19 20 20 20 20 20 21 22 23 23 24 24 24 23 23 24 24 24 24 24 24 25 25 24 23 23 23 22 21 21
14 14 13 12 12 11 10 11 11 9 9 8 8 9 10 10 10 10 10 10 9 12 16 18 19 20 21 21 21 21 19 18 17 16 15 17 18 18 18 17 16 15 17 18 18 17 15 14 14 16 16 16 16 16 17 18 19 21 22 23 24 24 23 24 25 26 26 26 26 25 25 26 25 24 23 23 23 23 23 23 23 22 22 22 21 21
14 15 15 13 12 11 10 10 10 9 8 8 8 10 11 11 11 11 10 10 10 11 15 19 20 20 21 21 21 21 20 19 18 17 16 17 18 18 17 15 15 15 16 16 16 17 16 16 16 17 18 18 18 19 19 20 20 21 22 23 25 26 26 26 27 28 28 28 28 27 27 27 27 26 25 23 22 20 21 22 22 21 22 22 22 22
14 15 15 14 13 11 10 9 9 9 9 8 8 11 13 12 11 11 11 10 10 10 13 18 20 21 22 23 22 22 22 21 20 18 16 16 18 18 16 14 14 14 15 16 16 16 16 17 18 18 19 19 20 21 22 23 23 24 24 24 24 25 26 27 29 30 30 30 30 30 29 28 29 29 28 25 23 21 19 20 20 20 21 22 22 23
14 15 14 14 13 11 10 9 9 9 8 7 7 9 11 10 10 10 10 11 12 12 14 17 19 20 22 23 23 23 22 22 21 19 16 15 18 19 17 14 13 14 14 15 16 16 17 17 18 19 20 21 22 23 23 24 25 26 26 26 25 24 24 24 26 29 30 30 31 31 30 30 30 30 30 28 27 25 22 20 19 19 20 21 22 23
14 15 14 13 12 12 11 10 10 10 9 7 8 10 10 10 11 11 11 12 13 14 15 16 18 18 20 22 23 22 21 21 20 18 15 15 18 20 19 17 16 15 15 16 16 17 17 18 19 20 21 22 23 24 24 24 25 26 27 27 27 26 25 24 24 26 28 28 29 30 29 30 31 31 31 30 29 28 26 22 20 20 20 21 22 22
14 14 14 14 13 12 11 11 11 10 9 8 9 11 11 12 13 13 13 13 13 14 15 16 17 18 19 21 21 21 21 21 19 17 14 14 17 20 20 19 18 16 16 16 17 17 18 19 20 21 22 22 23 25 25 25 25 26 27 27 27 27 26 25 24 24 25 26 27 28 27 27 28 30 30 30 30 30 29 26 23 22 21 21 21 22
15 14 14 14 13 12 12 12 11 10 10 10 10 10 11 13 14 15 14 13 13 14 14 16 17 18 20 21 22 21 22 22 19 14 12 14 17 19 19 19 18 17 17 17 17 18 19 20 21 22 23 24 25 26 26 26 26 26 26 25 25 25 24 24 22 22 22 23 25 26 25 24 25 26 28 29 30 30 30 29 26 24 22 21 21 22
16 15 14 14 13 13 13 12 12 12 12 12 11 10 10 11 14 16 15 14 14 14 15 16 17 18 19 21 22 22 22 23 21 16 13 14 16 17 18 17 18 18 18 18 18 18 19 20 22 23 24 25 26 26 27 26 25 23 21 21 20 20 20 20 20 19 19 20 22 23 23 23 22 23 25 27 29 29 29 29 28 26 24 23 22 22
16 15 14 15 15 14 14 13 13 12 12 12 12 12 11 11 12 14 16 15 15 14 15 17 17 17 18 20 22 21 21 22 22 20 18 16 16 16 17 17 17 18 19 18 17 17 18 19 21 22 23 24 25 26 26 24 20 17 16 16 17 17 16 17 17 16 15 16 18 19 20 20 20 21 22 24 26 28 28 29 28 27 25 24 23 23
16 16 14 15 17 16 15 15 14 13 12 12 11 12 13 13 13 13 14 15 14 13 14 16 17 17 18 20 21 21 20 20 22 22 21 19 18 17 16 17 17 18 17 17 16 17 17 18 19 20 21 23 24 25 23 19 15 14 14 14 15 15 15 15 14 13 12 12 13 13 15 16 17 18 20 21 23 25 26 27 27 26 25 25 25 24
15 16 15 15 17 18 17 15 15 14 13 12 12 12 13 15 15 14 12 12 13 12 13 15 17 17 18 19 19 19 18 19 20 21 21 19 18 18 18 17 17 17 18 18 18 18 17 18 19 19 20 22 24 23 19 15 13 13 13 14 15 14 14 14 13 11 10 9 9 9 10 12 14 16 17 19 20 22 23 24 25 25 25 25 25 24
15 16 15 14 16 19 18 16 16 15 14 13 13 13 12 13 15 14 11 11 12 13 14 15 16 17 17 17 16 17 17 17 18 19 19 18 18 19 19 19 19 20 20 20 20 19 18 18 18 18 19 21 22 20 16 13 12 13 14 15 14 14 14 13 12 11 10 9 8 8 9 10 12 13 15 16 18 19 20 22 23 23 23 23 24 24
15 16 16 15 16 19 19 17 16 16 16 15 14 13 12 13 13 12 12 13 15 15 14 14 14 15 16 15 15 15 15 15 16 17 17 17 18 18 18 19 20 20 20 20 19 19 18 18 17 17 18 20 21 18 14 12 12 13 14 14 13 13 13 13 13 13 12 11 9 8 9 10 11 12 13 15 16 17 18 19 20 20 20 20 21 22
14 15 15 15 16 18 19 18 17 16 17 17 15 14 13 13 13 12 13 15 15 14 14 14 15 15 15 15 15 15 15 15 15 16 17 17 17 17 18 18 19 19 19 18 17 16 17 17 17 17 18 19 20 17 13 11 11 12 13 12 12 13 14 14 14 14 14 13 12 10 10 9 10 11 12 13 14 14 15 16 17 17 18 18 19 20
13 14 14 15 15 17 18 18 17 16 17 17 16 16 14 13 13 13 13 14 14 14 15 16 16 15 16 16 16 15 15 15 15 16 17 17 17 16 16 17 18 17 17 16 16 15 15 16 16 17 17 18 19 17 12 10 10 11 11 11 11 13 14 15 15 15 15 14 14 13 12 11 11 11 12 12 13 13 14 15 15 16 17 17 18 19
14 13 12 12 13 15 17 17 17 17 18 18 17 17 16 15 15 14 14 13 14 15 16 16 16 16 16 16 15 15 15 14 14 15 16 18 19 17 16 17 17 16 15 15 15 14 14 15 16 16 17 18 19 17 13 10 10 10 10 11 12 13 14 15 15 15 15 15 14 14 13 13 13 13 14 14 15 15 16 16 17 18 18 19 18 19
15 13 13 12 13 14 16 16 17 18 18 19 19 18 17 17 16 16 15 15 15 15 17 18 18 18 17 16 15 15 14 13 13 14 15 18 19 19 19 19 18 16 15 14 14 14 15 16 15 15 16 18 19 17 13 10 10 10 10 10 12 13 14 15 15 15 15 15 15 14 13 13 13 13 15 16 16 17 17 18 19 19 19 20 20 20
15 15 16 16 15 16 16 16 17 17 18 19 19 19 18 18 17 17 17 17 16 15 16 18 19 19 18 16 16 16 14 13 13 14 16 17 18 18 18 19 19 17 16 16 15 15 15 15 14 14 14 16 18 16 13 11 10 10 10 10 11 12 14 14 14 15 15 15 15 14 13 12 11 11 13 14 16 17 18 18 19 19 19 19 19 19
18 18 18 17 16 16 16 16 16 17 17 18 19 19 19 19 18 17 17 19 19 17 16 17 18 18 18 18 18 17 15 14 14 15 16 17 17 17 17 18 18 18 18 18 17 16 14 13 13 13 13 16 17 16 13 11 10 10 10 10 11 12 13 14 15 15 16 15 14 14 13 12 11 10 10 11 12 13 15 16 16 17 17 17 16 17
20 20 19 18 17 16 16 16 16 16 17 18 18 19 20 21 20 19 18 19 21 21 19 18 18 18 18 18 18 17 16 15 16 16 16 16 17 17 17 18 18 18 19 19 19 17 15 14 13 13 13 15 16 15 13 12 11 10 10 10 11 12 13 15 15 15 15 15 14 13 13 12 11 10 9 8 8 8 9 10 11 13 13 12 12 12
21 19 18 19 18 17 16 16 16 17 17 18 19 19 21 22 22 22 21 20 21 22 21 21 21 19 18 17 17 16 16 16 17 17 16 16 15 16 16 17 18 18 19 19 19 18 17 16 14 13 13 14 15 15 14 12 11 10 10 10 11 12 13 15 15 14 14 13 13 12 12 12 11 9 8 8 6 4 4 4 6 7 7 7 7 8
21 19 17 17 18 19 18 17 17 18 19 19 20 20 21 22 23 24 24 23 23 23 22 22 21 20 19 18 17 17 18 18 17 17 16 15 14 14 15 15 16 16 17 18 18 18 18 17 15 14 13 14 14 15 14 13 11 11 10 10 11 12 13 14 13 13 12 12 11 11 11 11 11 9 8 8 7 4 2 1 2 3 3 4 5 6
22 21 19 19 20 20 20 19 18 18 19 20 21 22 23 23 25 26 26 25 26 25 24 23 22 21 20 20 19 19 19 19 18 17 16 15 14 14 14 15 15 15 16 17 17 17 17 17 16 14 14 13 14 14 14 13 12 11 10 10 10 11 11 13 13 12 11 11 9 9 9 10 10 10 9 8 8 6 4 2 1 1 1 2 3 4
22 23 23 22 21 21 21 22 21 20 20 20 20 21 23 24 26 27 27 27 27 27 26 25 24 23 22 23 22 21 20 20 19 18 16 15 14 14 14 14 14 14 15 15 16 17 17 16 16 16 14 13 13 13 14 13 12 11 10 10 10 11 11 12 13 12 11 10 8 7 7 8 8 9 9 9 8 7 6 5 3 2 1 1 2 2
23 23 24 23 22 22 22 22 23 24 24 23 21 21 23 25 26 27 28 28 28 27 27 26 26 25 25 24 24 23 21 20 19 18 17 16 15 15 14 14 14 14 14 15 16 16 16 16 16 16 15 13 13 13 13 12 11 11 10 10 10 10 11 12 12 12 11 9 7 6 6 6 7 7 7 8 9 9 7 5 4 3 3 2 2 2
24 25 25 24 24 23 22 21 23 25 27 26 23 22 24 26 28 28 29 29 28 28 27 26 25 25 24 23 23 23 22 20 20 20 19 17 16 15 15 14 14 14 13 14 15 16 15 15 15 15 15 14 13 13 13 12 11 11 11 10 10 10 11 12 13 12 11 10 7 5 4 4 5 6 6 7 8 9 8 6 5 4 3 3 2 2
26 27 26 26 25 24 22 21 22 23 26 27 25 24 25 27 29 30 30 30 30 28 27 26 26 25 23 21 21 22 23 22 21 21 20 18 17 16 16 15 15 15 14 14 15 16 15 14 14 15 15 14 13 12 12 12 11 11 11 11 11 11 11 11 12 12 12 11 9 7 5 3 3 4 5 6 7 8 8 8 7 5 4 3 3 2
28 28 28 28 27 26 25 23 22 22 24 26 25 25 25 26 27 29 30 30 30 29 29 28 27 25 24 24 23 23 23 23 22 22 21 20 19 18 17 16 17 17 16 15 15 16 15 14 14 14 15 14 13 12 12 12 12 12 11 12 12 12 11 11 11 12 12 11 10 9 7 5 4 3 4 5 5 6 6 7 7 7 6 5 4 3
29 29 29 29 28 28 28 27 24 22 23 24 25 26 26 26 26 28 29 28 27 28 28 28 26 25 24 24 24 23 22 22 22 23 23 23 21 19 17 17 18 18 18 16 16 16 16 14 14 14 15 14 14 13 12 12 13 12 12 12 12 12 12 12 12 12 12 11 11 10 9 7 6 4 3 3 3 4 4 5 5 6 6 6 6 6
29 30 31 31 29 29 29 29 28 27 26 25 24 26 27 27 28 28 29 28 26 25 26 26 26 24 23 23 22 22 22 22 22 23 24 24 23 21 20 20 20 21 21 20 18 17 17 15 14 14 15 15 15 14 13 13 13 13 12 11 11 11 12 12 12 12 11 11 10 10 10 9 8 6 4 3 3 3 3 3 4 4 5 5 6 6
30 30 32 32 31 29 29 29 30 30 28 26 25 26 27 28 29 29 30 29 27 25 25 25 25 24 22 22 22 22 21 22 22 23 24 24 24 23 22 21 21 21 22 23 22 20 18 16 14 14 15 15 15 15 14 13 14 14 13 11 11 11 11 12 12 11 11 11 10 10 10 9 8 7 6 4 3 3 3 3 3 3 3 4 4 4
30 30 32 33 32 31 30 30 30 29 29 28 27 27 28 28 29 30 31 31 30 28 25 24 24 23 22 21 22 21 21 22 23 23 23 24 25 24 23 21 20 20 21 22 22 22 20 18 15 14 14 15 15 15 15 14 14 14 13 11 10 10 11 11 11 11 11 11 10 10 9 9 9 8 7 6 5 4 3 3 3 3 3 2 2 3
31 31 32 33 33 33 32 31 30 28 28 28 27 28 29 29 30 31 32 32 32 30 27 25 24 24 23 22 22 22 21 22 23 24 24 24 25 26 25 23 22 22 21 20 21 21 20 19 17 15 14 15 15 15 15 15 14 14 13 12 11 10 11 12 11 11 11 11 11 10 9 9 9 8 7 7 6 5 4 3 3 3 3 3 2 2
Wind_Direction
211 219 226 227 227 233 238 245 242 211 206 221 220 214 217 227 235 238 240 240 243 249 258 268 277 283 282 277 277 282 289 301 313 316 316 318 321 323 322 321 318 313 305 303 304 301 299 300 305 302 292 291 297 302 304 299 292 282 272 269 262 252 248 247 251 254 253 254 254 254 254 254 254 253 251 250 249 249 251 251 251 247 244 241 239 237
213 219 229 230 228 229 219 228 234 206 205 229 232 223 224 233 243 249 249 248 245 245 255 270 276 277 274 274 279 282 287 301 311 312 312 315 318 319 317 315 314 311 308 306 304 304 303 300 300 299 292 288 289 294 300 295 286 278 267 261 259 255 252 250 249 253 256 257 257 256 255 254 252 252 252 252 252 251 251 251 250 248 246 243 240 240
204 206 217 213 217 236 216 214 230 224 219 225 226 225 233 243 250 256 260 259 256 254 258 271 274 270 270 274 280 285 291 299 300 300 305 310 313 313 311 311 312 313 311 309 308 306 304 303 303 302 295 288 285 289 295 289 279 273 264 258 257 256 255 252 251 253 255 257 258 257 257 255 252 251 250 252 253 253 253 251 249 246 245 245 243 242
195 191 190 184 205 228 222 220 229 232 232 233 234 233 242 254 255 255 260 266 274 277 272 274 273 269 272 276 280 284 285 287 288 294 304 307 309 309 309 312 314 315 313 311 311 309 306 306 307 305 298 287 284 290 293 284 273 268 262 255 254 254 253 253 253 254 255 256 256 257 256 256 254 251 250 250 251 253 253 253 251 247 245 246 245 244
205 203 199 209 214 222 237 248 249 250 250 247 250 250 254 260 258 259 263 266 280 286 275 270 271 271 274 275 278 281 280 283 291 299 305 306 309 311 312 315 315 315 314 313 314 311 307 307 308 305 295 286 287 292 292 282 270 265 261 255 252 251 251 253 254 255 256 255 255 254 254 255 254 253 251 250 250 251 252 253 253 250 248 247 247 246
230 227 225 232 232 238 256 271 272 273 274 263 259 261 264 268 266 267 268 264 276 279 267 266 270 273 277 275 277 282 286 291 299 304 307 309 312 313 314 315 316 316 316 315 314 311 308 307 305 300 292 288 286 285 287 283 273 265 260 254 251 249 249 253 257 258 259 256 254 252 251 251 252 252 251 251 251 251 250 252 252 252 252 250 249 249
269 259 239 240 258 267 277 294 294 286 282 272 271 268 265 265 263 265 259 250 259 262 259 264 267 270 276 278 279 284 290 298 305 310 311 313 313 312 313 315 315 316 315 313 311 307 306 304 302 298 292 285 279 276 282 284 277 268 261 253 250 248 248 253 258 259 259 257 254 251 249 248 249 250 250 250 251 251 251 252 253 253 253 253 251 251
5 280 263 272 305 310 306 312 295 277 269 265 268 259 255 253 254 259 253 244 251 255 256 263 266 267 273 279 282 286 291 298 304 308 311 311 310 308 310 312 315 315 313 312 308 302 300 300 301 297 286 277 273 276 283 284 277 269 262 254 250 247 247 253 258 260 260 258 255 253 251 248 248 249 250 250 250 250 251 252 253 253 252 252 251 251
320 303 308 322 333 314 282 285 283 283 286 287 282 259 256 259 255 259 259 255 257 255 254 261 264 265 273 280 284 288 293 297 303 307 307 306 304 305 308 311 314 315 314 313 307 298 297 298 296 289 279 275 275 280 284 281 276 270 265 257 249 245 247 253 259 260 260 259 259 259 256 253 250 250 250 250 250 250 250 251 252 252 251 250 249 249
316 310 305 308 299 280 284 299 309 318 315 304 292 271 266 266 262 262 265 262 260 255 253 261 266 268 275 281 285 291 297 302 305 304 302 302 303 304 308 312 314 317 318 316 306 299 298 291 284 282 280 279 280 282 284 283 279 276 272 259 247 243 246 253 259 260 260 261 263 263 261 257 253 253 253 253 254 253 250 249 251 251 249 248 248 249
318 301 298 303 297 295 306 305 304 317 318 303 292 284 280 277 275 273 263 252 251 250 253 259 264 268 273 277 283 290 297 299 297 294 295 298 303 306 311 315 318 320 321 317 305 300 297 284 281 286 288 287 285 283 285 287 285 282 277 261 245 242 246 253 257 259 260 262 264 264 263 260 257 256 258 259 258 256 253 251 251 250 249 248 250 251
339 314 305 302 294 296 298 290 289 296 307 302 296 294 289 284 283 279 265 252 251 254 259 262 263 267 273 278 283 287 288 287 285 286 290 295 302 307 311 316 321 324 324 319 304 300 298 287 286 291 293 293 292 288 286 287 284 281 277 263 248 242 245 252 255 258 261 263 264 264 264 263 261 261 262 263 262 260 256 254 252 250 250 251 254 255
345 334 316 281 279 286 278 282 292 298 305 300 295 300 300 292 285 280 272 265 264 268 272 271 267 266 270 275 279 280 278 279 281 285 290 295 302 305 309 317 324 326 326 322 305 300 300 292 289 292 295 298 300 295 291 286 280 277 274 262 251 246 247 250 254 257 261 263 263 263 264 263 263 263 264 264 263 261 259 257 254 252 251 252 254 254
342 339 334 295 286 286 276 279 288 299 304 297 295 305 311 301 285 278 274 266 265 270 272 271 270 270 271 274 275 276 277 279 284 288 292 297 302 305 311 321 328 327 325 322 309 300 300 295 290 290 292 300 306 304 297 288 279 275 271 258 250 249 248 250 252 255 259 262 262 261 262 262 262 263 263 263 262 262 261 258 256 255 253 252 251 249
347 341 335 330 321 302 286 284 288 300 302 296 298 306 309 305 289 279 278 268 262 261 263 269 275 278 280 280 280 281 284 286 288 290 294 298 301 305 312 319 326 326 321 319 313 300 294 291 289 287 289 298 308 309 300 289 279 271 265 257 252 251 249 249 250 252 255 259 259 260 261 262 262 261 261 260 260 260 259 258 257 256 254 251 248 247
348 345 338 345 341 319 317 315 310 313 306 299 304 306 308 310 301 291 285 277 269 261 262 270 275 280 284 287 289 290 291 291 291 292 294 296 298 303 310 315 320 321 318 316 313 302 292 287 286 287 290 294 299 301 296 288 281 272 261 256 256 256 255 255 254 253 254 255 257 259 263 264 262 260 259 257 256 256 255 255 254 254 253 250 248 247
344 345 340 348 347 331 332 327 319 317 309 306 310 308 308 309 307 306 302 296 282 265 264 267 270 277 285 288 291 292 292 293 294 295 294 292 294 303 311 315 316 316 314 312 313 313 303 291 287 287 288 288 289 291 289 286 283 277 268 260 258 257 256 255 254 252 252 253 255 257 261 264 262 259 256 254 252 251 250 249 247 247 247 246 246 246
343 342 340 346 349 344 337 328 325 322 312 312 313 306 305 307 310 314 313 309 289 268 271 273 273 281 287 288 290 292 294 296 299 299 294 290 296 308 315 314 310 308 306 306 310 316 312 297 290 290 291 292 291 290 288 286 284 283 280 275 270 265 260 256 254 251 249 249 250 251 254 259 260 258 254 251 249 247 245 243 241 240 240 240 242 243
345 342 344 346 348 347 340 334 332 326 317 319 315 300 301 305 309 310 303 299 293 282 284 286 284 288 292 292 294 297 299 300 300 300 299 298 303 311 317 315 310 302 298 300 306 309 310 306 302 303 305 306 304 300 296 292 288 284 282 280 277 273 269 264 260 256 253 250 248 247 248 251 254 255 253 250 249 247 244 241 237 237 237 237 238 240
347 343 347 348 348 347 347 346 338 328 324 323 311 296 294 296 299 299 296 295 295 287 286 289 291 294 296 298 301 303 303 302 301 303 307 307 307 308 311 312 310 303 298 300 302 303 308 312 312 314 314 314 313 312 311 307 301 294 288 282 278 275 273 271 267 263 259 256 252 249 248 248 249 251 251 250 250 249 247 243 239 237 237 237 238 239
350 345 348 350 351 348 350 351 340 329 324 321 308 291 288 291 292 295 300 302 297 287 284 289 293 295 298 300 301 303 304 305 305 305 306 307 305 303 302 303 305 305 302 301 300 302 307 310 312 314 314 314 315 315 314 312 309 305 300 294 289 284 279 276 273 269 265 262 259 256 253 251 249 249 250 250 251 250 250 247 243 240 238 239 238 239
352 348 351 352 351 349 349 347 338 327 320 320 317 300 293 292 291 294 301 301 298 294 290 290 292 293 295 296 297 300 304 306 305 303 305 310 307 301 300 301 303 306 304 300 299 302 306 309 311 313 313 314 314 314 314 313 310 307 305 303 301 297 291 284 278 273 269 266 263 259 257 254 251 249 249 251 251 251 251 250 247 245 242 240 240 239
352 349 352 351 349 349 345 341 338 334 327 317 315 313 305 296 291 292 295 296 296 297 297 296 295 296 295 296 298 301 302 301 300 302 310 313 306 301 302 304 307 308 305 300 300 303 306 309 310 311 313 314 314 314 315 315 312 310 308 307 305 302 297 291 283 276 272 267 264 260 256 254 252 250 249 251 252 252 252 251 249 248 245 242 241 240
355 352 351 349 346 346 344 343 343 338 328 316 312 314 312 304 296 292 291 292 292 295 298 298 298 301 301 302 304 304 299 297 300 306 309 301 295 297 302 306 308 308 305 303 305 307 309 310 311 312 314 314 314 316 318 319 316 313 311 308 305 302 298 293 286 279 274 270 266 261 256 251 250 248 248 249 251 251 252 251 250 249 248 245 243 242
355 353 350 348 344 341 342 345 343 334 326 326 323 317 312 308 301 295 292 291 290 293 296 295 298 303 304 304 304 302 300 302 309 315 307 291 291 299 305 309 310 309 308 310 312 311 312 313 314 314 315 317 319 321 322 321 319 316 314 312 309 305 302 298 291 284 278 272 266 262 257 251 247 245 244 244 246 248 250 251 250 249 249 248 246 245
352 353 349 346 344 344 343 340 339 335 333 334 332 321 311 306 304 303 302 298 295 297 296 295 298 302 304 304 302 303 307 311 315 316 308 300 302 308 311 314 314 312 313 314 313 312 313 315 316 317 319 322 323 323 322 323 323 321 320 319 316 313 309 304 297 290 283 274 267 261 256 251 247 244 241 240 241 243 246 249 250 249 249 249 247 246
351 354 350 343 342 347 345 339 338 337 337 339 338 329 319 312 307 307 308 306 304 304 300 298 303 306 307 305 304 308 314 313 313 315 316 318 319 317 317 319 318 315 314 314 314 314 315 316 317 319 322 323 322 322 324 326 327 328 329 328 325 323 318 311 305 299 291 280 270 262 255 251 249 245 242 240 239 238 240 243 247 247 247 247 246 245
347 351 351 343 340 344 347 344 341 337 334 337 337 331 324 320 316 312 311 310 309 308 302 301 306 310 308 307 310 315 316 311 311 315 318 322 322 320 320 319 315 314 316 317 317 315 315 317 319 321 323 322 321 323 326 328 330 333 335 333 333 332 327 322 320 314 303 289 277 266 257 252 251 247 243 242 240 239 238 239 242 243 243 244 245 244
349 347 347 342 338 341 346 347 346 340 334 332 332 332 330 327 324 319 316 315 316 314 307 304 307 307 307 309 312 311 309 307 309 311 314 317 318 318 317 315 315 318 322 321 318 315 315 317 320 322 322 322 323 325 327 329 332 336 338 337 337 335 331 333 334 328 317 304 288 273 261 254 251 249 246 244 243 242 240 239 239 240 240 241 242 243
349 345 343 338 334 339 345 346 347 344 337 333 333 333 332 331 328 321 316 319 321 317 311 307 307 306 309 312 310 307 305 303 303 305 309 312 313 314 316 318 320 321 320 317 315 313 314 316 319 322 322 323 325 326 326 330 335 338 339 342 340 334 332 337 338 332 326 316 301 285 272 262 256 252 250 248 247 245 243 241 239 239 239 239 240 241
340 340 340 336 332 336 342 344 345 343 338 335 335 333 331 333 331 321 313 316 319 318 315 313 311 311 312 313 311 310 308 304 302 302 303 305 308 311 315 317 316 313 311 311 311 311 311 313 319 322 323 326 327 327 326 331 337 338 339 344 344 337 336 339 338 335 332 324 311 296 281 270 263 257 252 250 248 246 244 243 241 241 241 240 240 241
335 336 337 336 331 332 338 342 343 341 338 336 334 332 330 330 328 320 312 313 315 316 317 317 316 315 314 314 313 312 310 309 308 305 304 306 308 309 311 310 308 308 310 310 309 307 307 313 319 322 325 328 328 326 326 330 336 336 338 343 345 341 342 343 338 336 333 327 320 309 294 280 268 260 253 249 247 246 245 245 245 245 245 244 243 242
340 339 335 332 329 328 333 340 342 341 339 335 331 330 328 326 324 320 315 312 312 312 312 312 313 312 313 313 314 313 311 310 310 309 309 308 305 306 308 307 307 309 310 310 307 305 308 314 318 321 326 328 327 326 325 328 333 334 336 341 342 342 345 345 341 338 334 328 322 315 305 294 282 271 262 256 253 251 250 251 251 252 252 250 248 247
345 342 335 329 326 326 332 339 340 339 337 332 329 328 326 323 321 320 316 311 310 309 306 305 307 309 310 311 313 313 311 310 312 313 312 308 308 313 313 309 308 310 311 309 307 309 314 316 316 320 324 327 327 328 326 325 328 331 333 336 340 342 345 346 344 342 338 333 327 319 310 299 289 280 273 266 262 259 257 256 257 257 257 257 255 253
344 339 336 336 333 331 335 337 335 335 333 328 326 327 326 323 322 320 316 311 309 309 307 306 307 306 305 306 309 311 311 313 317 317 313 310 312 316 316 312 311 314 314 312 311 315 317 315 314 318 323 325 328 330 327 322 322 327 330 334 338 340 342 344 345 344 342 338 334 328 319 307 295 284 276 270 266 262 260 260 259 259 259 260 259 258
343 341 342 343 339 334 333 333 331 330 328 325 326 328 325 322 320 317 314 311 309 309 309 307 305 302 299 302 306 309 312 316 317 314 311 312 314 315 313 311 312 314 316 316 316 315 312 309 310 315 320 324 328 331 329 320 318 321 326 332 336 337 337 339 342 343 342 339 337 334 331 323 311 297 284 274 267 263 260 259 258 258 259 260 260 259
347 344 342 341 336 329 326 326 325 325 323 323 326 327 322 318 315 313 312 312 311 311 310 307 303 299 297 299 302 304 308 312 312 310 310 312 314 314 311 308 310 314 315 315 314 310 307 307 310 315 320 322 325 331 331 323 318 318 320 327 334 334 333 335 337 338 337 336 337 338 340 340 334 323 309 292 277 267 261 257 256 255 255 257 258 258
351 344 338 335 331 325 321 320 318 319 319 320 322 322 318 315 313 310 310 310 310 312 312 310 307 301 294 294 297 299 301 306 308 308 309 310 311 312 311 309 310 312 311 310 311 311 311 311 313 315 318 318 321 329 334 328 321 317 317 323 329 329 328 329 331 332 332 334 337 341 347 351 351 349 342 326 303 281 266 255 251 250 249 250 253 255
351 344 334 328 324 319 316 315 314 314 315 316 319 318 316 314 312 310 310 308 307 309 311 311 310 305 296 292 296 298 298 301 304 305 306 306 307 309 309 307 306 307 307 309 312 314 312 311 312 313 313 313 317 326 333 332 326 321 321 323 324 325 325 324 327 331 332 334 339 343 351 359 0 1 2 356 341 314 278 250 240 238 236 235 242 249
348 344 335 325 320 316 312 310 310 311 311 313 317 318 317 315 313 313 312 310 307 307 308 307 307 304 297 292 294 297 297 298 301 302 302 302 303 305 306 305 304 305 306 308 310 312 310 307 308 307 306 309 314 321 327 331 333 333 331 329 327 327 326 325 328 332 333 334 340 343 350 2 6 3 5 7 4 356 338 278 232 218 208 212 230 246
343 343 339 333 326 319 313 309 307 306 308 311 314 317 318 318 317 317 316 313 310 308 306 304 302 299 295 292 292 295 297 298 298 298 296 296 299 303 306 307 307 306 306 305 306 308 308 305 303 302 302 304 308 314 320 326 333 336 336 334 334 336 335 330 331 335 335 333 338 343 348 360 7 7 6 7 7 10 15 16 345 237 209 219 239 256
337 339 339 338 332 324 318 313 309 307 310 313 315 316 316 317 319 318 316 313 310 307 305 302 299 296 294 292 292 292 293 295 296 294 290 289 293 299 302 303 305 306 304 302 303 306 307 304 299 297 295 294 299 304 309 315 323 330 334 337 339 341 342 338 336 340 342 338 335 339 345 354 3 10 13 13 10 10 15 19 16 5 339 286 275 277
331 332 335 338 335 328 322 315 310 310 313 315 316 316 316 317 318 317 315 313 311 308 305 301 298 295 293 293 291 289 289 291 291 288 286 285 289 297 301 302 305 306 305 301 300 302 304 301 294 289 287 287 290 293 296 304 315 323 327 333 336 339 343 345 344 348 351 349 341 335 339 348 356 5 16 20 19 16 15 17 15 8 4 3 347 324
325 326 330 334 334 331 324 314 308 307 309 311 313 314 315 317 318 317 316 315 313 310 306 302 300 298 296 294 292 291 290 289 286 282 281 282 285 290 295 297 301 304 305 303 299 298 300 298 291 285 283 281 280 282 288 298 309 315 319 324 328 334 342 347 349 353 357 0 359 348 335 340 350 357 8 19 24 24 21 19 17 9 5 9 6 356
320 323 326 329 332 332 326 314 306 303 304 307 309 310 311 314 316 317 316 315 312 310 307 304 304 304 302 300 297 294 292 290 287 282 279 277 277 278 277 279 287 296 303 305 301 298 298 297 292 286 281 278 275 277 285 295 302 307 311 316 320 329 340 345 348 353 359 5 9 7 358 346 347 355 4 12 20 22 22 23 25 24 19 8 354 345
316 320 322 325 329 331 326 317 308 300 299 301 303 304 307 311 313 314 314 312 311 309 306 306 306 306 304 301 297 293 288 286 285 283 280 276 273 271 268 267 275 287 297 302 302 299 299 299 296 289 283 280 279 279 284 291 295 299 304 308 314 324 334 339 344 350 358 3 10 13 12 4 354 352 360 8 14 16 16 19 25 31 33 29 18 7
314 318 319 322 326 327 324 319 312 302 298 299 301 304 308 312 314 315 314 314 312 308 305 305 306 304 302 298 295 292 287 283 282 281 280 277 272 268 266 267 273 281 289 295 299 300 300 298 296 293 288 284 282 281 282 286 289 292 296 302 310 319 326 331 336 343 350 358 7 13 15 14 9 359 349 351 360 5 8 11 17 23 30 35 35 33
312 315 317 319 322 323 321 319 315 310 306 304 303 304 307 311 315 318 319 319 316 310 305 304 304 302 300 296 293 290 288 286 284 282 280 277 274 270 269 270 273 277 281 285 289 294 297 295 292 290 287 283 280 279 278 279 281 284 288 294 303 311 316 320 327 333 339 348 359 7 12 16 16 10 357 342 332 334 345 358 7 13 20 28 33 35
310 314 315 316 318 319 318 316 314 312 309 306 303 303 306 309 314 319 321 321 318 312 307 304 304 304 301 297 292 290 288 286 285 283 281 280 278 276 272 272 274 276 277 278 280 284 289 289 285 283 282 279 275 273 271 271 272 274 277 283 293 302 306 310 316 322 327 333 344 356 4 10 15 16 11 360 344 324 315 320 333 350 6 17 22 26
310 314 314 314 315 315 315 315 313 311 307 304 302 301 303 307 312 317 319 318 317 314 310 306 305 305 303 298 293 290 288 287 286 286 286 284 281 276 274 276 280 283 281 277 276 277 280 282 280 277 277 275 272 268 266 264 264 265 269 275 284 292 295 298 303 310 314 319 328 339 350 358 5 11 15 13 8 355 332 314 307 309 316 333 357 11
310 313 313 312 312 312 312 313 314 310 304 300 298 297 299 303 307 310 312 313 314 314 311 307 305 305 304 301 297 293 291 289 288 288 288 286 282 278 276 278 283 286 285 280 274 272 274 277 277 275 274 273 271 267 265 263 262 263 266 270 274 279 283 287 292 298 302 307 313 320 330 341 349 356 4 10 13 13 6 349 328 311 303 297 298 309
Height
5800 5800 5801 5801 5801 5801 5802 5801 5802 5802 5802 5802 5803 5802 5802 5802 5802 5802 5802 5803 5803 5802 5802 5802 5801 5801 5801 5800 5798 5797 5796 5796 5796 5796 5794 5794 5794 5794 5795 5795 5795 5793 5792 5790 5789 5788 5787 5787 5786 5785 5784 5783 5782 5783 5784 5784 5784 5783 5783 5782 5781 5781 5782 5782 5781 5781 5782 5782 5782 5783 5783 5783 5784 5784 5785 5785 5786 5787 5788 5789 5790 5791 5793 5793 5794 5795
5800 5800 5800 5800 5801 5801 5801 5800 5800 5801 5801 5801 5801 5801 5801 5800 5800 5801 5801 5801 5801 5802 5802 5801 5800 5800 5800 5799 5798 5798 5797 5796 5796 5795 5794 5793 5793 5793 5793 5793 5792 5791 5790 5788 5787 5786 5785 5784 5783 5782 5782 5780 5779 5780 5780 5780 5780 5780 5780 5780 5779 5779 5779 5780 5780 5779 5780 5780 5780 5780 5780 5781 5781 5782 5782 5783 5784 5785 5786 5787 5788 5789 5790 5791 5792 5792
5799 5799 5799 5800 5801 5800 5800 5799 5800 5799 5799 5799 5799 5800 5799 5799 5799 5799 5799 5799 5799 5800 5801 5801 5800 5799 5798 5798 5798 5798 5797 5796 5795 5794 5794 5793 5792 5791 5791 5790 5790 5789 5787 5786 5785 5784 5782 5781 5780 5779 5778 5777 5776 5776 5777 5777 5776 5776 5776 5776 5776 5776 5777 5777 5777 5777 5778 5778 5778 5778 5778 5778 5779 5779 5780 5780 5781 5783 5784 5785 5786 5787 5788 5788 5789 5789
5798 5798 5799 5799 5799 5799 5798 5798 5799 5799 5798 5798 5798 5799 5798 5798 5798 5798 5798 5798 5797 5798 5800 5799 5799 5798 5797 5797 5797 5797 5796 5795 5793 5793 5793 5792 5791 5790 5789 5788 5787 5786 5785 5783 5782 5781 5779 5778 5777 5776 5775 5774 5773 5773 5773 5773 5773 5773 5773 5773 5773 5773 5773 5774 5775 5775 5775 5775 5776 5775 5775 5776 5776 5777 5778 5778 5779 5780 5781 5782 5783 5784 5785 5785 5786 5786
5797 5797 5798 5798 5797 5798 5797 5797 5798 5798 5798 5798 5798 5798 5797 5798 5798 5797 5797 5798 5797 5797 5797 5797 5796 5796 5796 5796 5796 5795 5795 5794 5792 5791 5791 5790 5789 5788 5786 5786 5785 5784 5782 5781 5780 5779 5777 5776 5774 5773 5772 5772 5771 5770 5770 5769 5769 5769 5770 5770 5771 5771 5771 5771 5772 5772 5773 5773 5773 5773 5773 5773 5774 5774 5775 5776 5777 5778 5779 5780 5780 5781 5782 5782 5783 5783
5797 5797 5797 5797 5797 5797 5796 5797 5797 5796 5796 5797 5797 5797 5796 5796 5796 5796 5796 5797 5798 5797 5795 5795 5794 5794 5793 5793 5793 5792 5792 5792 5792 5791 5790 5788 5787 5786 5785 5784 5783 5782 5780 5779 5778 5777 5776 5774 5772 5771 5771 5769 5768 5768 5767 5767 5767 5767 5767 5768 5768 5768 5768 5768 5769 5770 5770 5770 5771 5771 5771 5771 5771 5772 5773 5774 5775 5776 5777 5777 5778 5778 5778 5779 5780 5780
5797 5798 5797 5797 5797 5796 5796 5796 5796 5795 5795 5795 5795 5795 5795 5795 5795 5794 5794 5795 5795 5795 5793 5793 5793 5791 5790 5790 5791 5790 5790 5790 5791 5790 5788 5787 5785 5784 5783 5782 5781 5780 5779 5778 5777 5776 5775 5773 5772 5770 5769 5767 5766 5766 5765 5765 5764 5764 5764 5765 5765 5766 5766 5766 5767 5767 5767 5768 5768 5768 5769 5769 5769 5769 5770 5771 5772 5773 5774 5775 5775 5775 5776 5776 5777 5778
5797 5797 5797 5797 5797 5796 5796 5796 5795 5794 5794 5793 5794 5793 5793 5793 5792 5792 5792 5792 5792 5792 5791 5791 5791 5789 5788 5788 5789 5789 5789 5789 5789 5788 5787 5786 5785 5784 5783 5781 5780 5779 5778 5777 5777 5776 5774 5773 5771 5769 5767 5765 5764 5764 5763 5763 5762 5762 5762 5763 5763 5763 5764 5764 5764 5765 5765 5765 5765 5766 5766 5766 5766 5767 5767 5768 5769 5770 5771 5772 5772 5772 5773 5773 5774 5775
5797 5796 5796 5796 5796 5795 5795 5794 5794 5793 5792 5792 5792 5792 5791 5791 5791 5790 5791 5791 5791 5791 5790 5790 5789 5788 5787 5787 5787 5787 5787 5788 5788 5787 5786 5785 5784 5783 5781 5780 5779 5778 5776 5775 5775 5774 5773 5771 5769 5767 5765 5764 5763 5763 5761 5760 5760 5759 5760 5761 5761 5761 5761 5762 5762 5763 5763 5763 5763 5763 5763 5764 5764 5764 5765 5766 5766 5767 5768 5769 5769 5770 5770 5771 5771 5772
5796 5795 5795 5795 5795 5795 5794 5793 5793 5793 5792 5791 5791 5790 5790 5790 5789 5789 5789 5789 5789 5789 5789 5788 5788 5787 5786 5786 5785 5786 5786 5786 5786 5785 5784 5784 5783 5781 5780 5779 5777 5776 5774 5774 5773 5772 5771 5770 5767 5765 5764 5763 5762 5761 5759 5759 5758 5758 5758 5758 5758 5759 5759 5760 5760 5760 5760 5760 5760 5760 5761 5761 5761 5762 5762 5763 5764 5764 5765 5766 5766 5767 5768 5768 5769 5769
5796 5795 5794 5794 5793 5793 5793 5793 5792 5792 5791 5790 5789 5789 5789 5788 5788 5787 5788 5788 5787 5787 5787 5786 5786 5785 5785 5785 5785 5785 5785 5785 5784 5783 5783 5782 5781 5780 5778 5777 5776 5775 5773 5772 5771 5770 5769 5767 5765 5764 5763 5762 5760 5759 5758 5757 5757 5756 5756 5756 5757 5757 5757 5757 5758 5758 5758 5758 5758 5758 5758 5759 5759 5759 5760 5760 5761 5761 5762 5763 5764 5765 5765 5766 5766 5767
5795 5794 5793 5793 5792 5792 5792 5791 5791 5791 5790 5789 5789 5788 5788 5788 5787 5786 5786 5786 5785 5785 5785 5785 5784 5784 5783 5783 5784 5784 5784 5783 5782 5782 5781 5781 5779 5778 5777 5776 5775 5773 5771 5770 5769 5767 5767 5766 5764 5763 5761 5760 5759 5758 5757 5756 5755 5754 5754 5755 5755 5755 5755 5755 5756 5756 5756 5756 5756 5756 5756 5756 5757 5757 5757 5758 5758 5759 5760 5761 5761 5762 5762 5763 5764 5764
5794 5793 5793 5792 5791 5791 5791 5790 5789 5789 5788 5788 5788 5788 5787 5787 5786 5785 5785 5784 5784 5783 5784 5783 5783 5783 5782 5782 5782 5782 5782 5781 5781 5780 5779 5778 5777 5776 5775 5774 5773 5771 5770 5768 5767 5766 5765 5764 5762 5761 5759 5758 5757 5756 5755 5754 5753 5753 5753 5754 5754 5754 5754 5754 5754 5754 5754 5754 5754 5754 5754 5754 5754 5755 5755 5755 5755 5756 5757 5758 5758 5759 5759 5760 5761 5761
5793 5792 5792 5791 5790 5790 5790 5789 5788 5788 5787 5786 5786 5786 5786 5785 5785 5784 5784 5783 5782 5782 5782 5781 5781 5781 5781 5780 5780 5780 5779 5779 5779 5778 5777 5775 5774 5774 5773 5772 5771 5770 5768 5766 5765 5764 5763 5762 5761 5759 5758 5757 5755 5754 5753 5752 5752 5752 5752 5752 5752 5752 5752 5752 5752 5752 5752 5752 5752 5752 5752 5752 5752 5752 5753 5753 5753 5753 5754 5755 5755 5756 5756 5757 5757 5758
5792 5791 5790 5790 5789 5789 5789 5788 5787 5787 5786 5785 5784 5784 5784 5784 5783 5783 5782 5782 5781 5781 5780 5779 5778 5778 5778 5778 5777 5777 5778 5777 5776 5775 5774 5773 5772 5772 5771 5770 5769 5768 5766 5765 5764 5762 5761 5760 5759 5757 5756 5755 5754 5753 5752 5751 5751 5751 5751 5751 5750 5750 5750 5750 5750 5750 5750 5750 5750 5750 5750 5750 5750 5750 5750 5750 5750 5751 5751 5752 5753 5753 5753 5754 5754 5755
5791 5790 5789 5789 5788 5788 5787 5787 5786 5785 5785 5784 5783 5783 5783 5783 5782 5782 5781 5781 5780 5779 5778 5777 5776 5775 5775 5775 5775 5775 5775 5774 5773 5772 5772 5771 5771 5770 5770 5769 5768 5767 5765 5763 5762 5761 5760 5759 5757 5755 5754 5754 5753 5753 5751 5750 5749 5749 5749 5749 5748 5748 5748 5748 5748 5748 5748 5748 5748 5748 5748 5748 5748 5748 5748 5748 5747 5748 5749 5749 5750 5750 5750 5751 5752 5752
5789 5789 5788 5788 5788 5787 5786 5785 5784 5784 5783 5782 5782 5782 5781 5781 5780 5780 5780 5779 5778 5777 5776 5775 5774 5773 5773 5772 5772 5772 5772 5771 5771 5771 5770 5769 5769 5769 5768 5767 5766 5765 5764 5762 5760 5760 5759 5757 5755 5754 5753 5752 5752 5751 5750 5749 5748 5747 5747 5746 5746 5746 5746 5745 5745 5745 5745 5745 5745 5746 5745 5745 5745 5745 5745 5745 5745 5745 5746 5746 5747 5747 5747 5748 5749 5749
5788 5788 5787 5787 5787 5786 5785 5784 5783 5783 5782 5782 5782 5781 5780 5780 5779 5778 5778 5778 5777 5776 5774 5773 5773 5772 5772 5771 5770 5770 5770 5769 5769 5769 5768 5767 5766 5766 5766 5765 5764 5763 5762 5760 5758 5757 5757 5755 5754 5752 5751 5750 5750 5749 5748 5747 5746 5745 5744 5744 5743 5743 5742 5742 5742 5741 5741 5741 5742 5742 5742 5743 5742 5742 5742 5742 5742 5742 5743 5743 5744 5744 5745 5745 5746 5746
5788 5787 5786 5786 5786 5785 5784 5783 5782 5781 5780 5780 5780 5780 5779 5779 5778 5777 5777 5776 5776 5775 5773 5771 5771 5770 5770 5769 5768 5768 5768 5768 5767 5767 5766 5765 5764 5764 5764 5763 5762 5761 5760 5758 5757 5756 5754 5753 5752 5750 5749 5749 5748 5746 5745 5745 5743 5742 5742 5741 5741 5740 5739 5739 5738 5738 5738 5738 5738 5739 5739 5739 5739 5739 5739 5739 5739 5739 5740 5740 5741 5741 5742 5742 5743 5743
5787 5786 5785 5785 5785 5784 5783 5782 5781 5780 5779 5779 5779 5779 5778 5778 5777 5776 5776 5775 5775 5774 5772 5770 5769 5768 5767 5767 5766 5765 5765 5765 5764 5764 5764 5763 5763 5762 5763 5762 5760 5759 5758 5757 5755 5754 5752 5751 5749 5748 5747 5746 5745 5744 5742 5741 5740 5739 5739 5738 5737 5736 5736 5735 5734 5734 5734 5734 5734 5735 5735 5735 5736 5736 5736 5736 5736 5737 5737 5737 5738 5738 5739 5739 5740 5740
5787 5786 5785 5784 5783 5783 5782 5781 5781 5780 5779 5778 5778 5777 5777 5776 5775 5774 5774 5774 5773 5772 5771 5769 5767 5766 5765 5765 5764 5763 5762 5761 5761 5761 5761 5761 5760 5760 5760 5760 5758 5757 5756 5755 5753 5752 5750 5749 5747 5746 5745 5744 5742 5741 5740 5738 5737 5736 5734 5734 5733 5732 5731 5731 5729 5729 5729 5729 5729 5730 5731 5731 5731 5732 5733 5733 5733 5733 5734 5734 5734 5735 5736 5736 5737 5737
5787 5786 5785 5784 5782 5781 5781 5780 5780 5779 5778 5778 5777 5777 5775 5775 5774 5773 5772 5772 5771 5770 5770 5768 5767 5765 5764 5763 5762 5761 5760 5759 5759 5759 5759 5759 5758 5757 5757 5757 5756 5755 5754 5752 5751 5750 5748 5747 5745 5744 5743 5741 5740 5739 5738 5736 5734 5732 5730 5729 5728 5728 5727 5726 5725 5724 5723 5724 5724 5725 5726 5727 5727 5728 5729 5729 5730 5730 5731 5731 5731 5732 5733 5733 5733 5734
5787 5785 5784 5783 5782 5781 5780 5779 5779 5778 5777 5776 5776 5775 5774 5773 5773 5772 5771 5770 5769 5768 5768 5767 5766 5765 5763 5761 5761 5760 5759 5758 5757 5757 5758 5757 5756 5754 5754 5754 5753 5752 5751 5750 5749 5747 5746 5745 5743 5742 5741 5739 5738 5736 5735 5733 5731 5729 5727 5726 5724 5723 5722 5721 5720 5719 5718 5718 5719 5719 5721 5722 5722 5724 5725 5725 5726 5726 5727 5728 5728 5729 5729 5730 5730 5731
5786 5785 5784 5782 5781 5780 5779 5778 5778 5777 5776 5776 5775 5774 5773 5772 5771 5770 5769 5769 5768 5767 5765 5764 5763 5763 5762 5760 5759 5758 5757 5756 5756 5756 5756 5755 5754 5753 5752 5751 5750 5749 5748 5747 5746 5745 5744 5742 5741 5740 5738 5737 5736 5734 5732 5730 5728 5726 5724 5722 5721 5719 5718 5717 5716 5714 5714 5714 5714 5714 5715 5716 5717 5719 5720 5721 5722 5722 5723 5724 5725 5725 5726 5727 5728 5728
5786 5784 5783 5782 5780 5779 5778 5777 5777 5776 5775 5774 5774 5773 5772 5771 5770 5769 5768 5767 5766 5765 5764 5762 5761 5761 5760 5758 5757 5756 5754 5754 5754 5755 5754 5753 5751 5751 5750 5749 5748 5747 5746 5745 5744 5743 5741 5740 5739 5737 5736 5734 5733 5731 5729 5727 5725 5723 5721 5720 5718 5716 5714 5712 5711 5710 5710 5710 5709 5710 5711 5712 5713 5714 5716 5717 5718 5718 5719 5720 5721 5722 5723 5724 5725 5725
5785 5784 5783 5781 5780 5778 5777 5777 5776 5775 5774 5773 5772 5772 5771 5770 5768 5767 5766 5765 5764 5763 5762 5761 5760 5759 5758 5757 5755 5754 5753 5752 5751 5751 5751 5750 5749 5748 5747 5747 5746 5745 5744 5744 5742 5741 5739 5738 5736 5735 5733 5732 5730 5728 5726 5725 5723 5721 5719 5717 5715 5713 5711 5709 5708 5707 5707 5706 5706 5706 5707 5708 5709 5710 5712 5713 5713 5714 5715 5716 5717 5719 5720 5721 5722 5722
5785 5784 5782 5780 5779 5778 5777 5776 5775 5774 5773 5772 5771 5770 5769 5769 5767 5766 5764 5764 5763 5762 5760 5759 5758 5758 5757 5755 5753 5752 5751 5750 5748 5748 5747 5747 5747 5746 5745 5745 5744 5743 5743 5742 5741 5739 5738 5737 5735 5733 5732 5730 5728 5726 5724 5723 5721 5719 5718 5716 5713 5711 5710 5707 5706 5705 5704 5703 5703 5703 5704 5705 5706 5707 5708 5709 5710 5711 5712 5713 5714 5715 5716 5717 5718 5719
5784 5783 5782 5780 5777 5776 5776 5775 5774 5773 5772 5771 5770 5768 5767 5767 5766 5764 5763 5762 5761 5760 5759 5757 5756 5756 5755 5753 5751 5750 5750 5748 5747 5745 5745 5745 5745 5745 5744 5744 5743 5742 5741 5740 5739 5738 5737 5735 5733 5732 5730 5728 5727 5725 5723 5721 5720 5718 5716 5714 5712 5710 5708 5706 5705 5703 5702 5701 5701 5701 5701 5702 5703 5704 5705 5706 5706 5707 5708 5709 5710 5711 5712 5713 5714 5715
5784 5783 5781 5779 5777 5775 5775 5774 5773 5772 5771 5770 5769 5767 5766 5765 5763 5762 5761 5760 5760 5759 5758 5756 5755 5754 5753 5752 5750 5749 5748 5747 5745 5744 5743 5743 5743 5742 5742 5742 5741 5740 5739 5739 5737 5736 5735 5733 5732 5730 5728 5727 5725 5723 5721 5720 5719 5717 5715 5713 5711 5709 5707 5705 5704 5703 5702 5701 5700 5700 5700 5701 5701 5702 5703 5703 5704 5704 5705 5706 5707 5708 5709 5710 5711 5712
5784 5782 5781 5779 5776 5774 5774 5773 5772 5771 5770 5769 5767 5766 5765 5764 5762 5760 5759 5759 5758 5757 5756 5755 5754 5752 5751 5750 5749 5747 5747 5746 5744 5743 5743 5742 5741 5741 5740 5739 5738 5737 5737 5736 5735 5733 5732 5731 5730 5728 5727 5725 5723 5722 5720 5719 5717 5716 5714 5712 5710 5708 5706 5705 5703 5702 5701 5700 5700 5699 5699 5699 5699 5700 5701 5701 5701 5702 5702 5703 5704 5705 5706 5707 5708 5709
5783 5782 5780 5778 5776 5774 5773 5772 5771 5770 5768 5767 5766 5765 5764 5762 5761 5759 5758 5757 5756 5755 5754 5753 5752 5751 5750 5749 5747 5746 5745 5744 5743 5743 5742 5742 5741 5740 5739 5738 5737 5736 5735 5734 5732 5731 5730 5729 5728 5727 5725 5724 5722 5720 5719 5717 5716 5714 5713 5711 5709 5707 5706 5705 5703 5702 5701 5700 5699 5698 5698 5698 5698 5698 5699 5699 5699 5700 5700 5700 5701 5702 5702 5703 5705 5706
5783 5781 5780 5778 5776 5773 5772 5771 5770 5769 5767 5765 5764 5763 5762 5761 5760 5758 5757 5756 5755 5754 5753 5751 5750 5749 5748 5747 5746 5745 5743 5743 5742 5741 5741 5740 5740 5739 5738 5737 5736 5734 5733 5732 5731 5729 5728 5727 5726 5725 5724 5722 5720 5719 5718 5716 5715 5714 5712 5710 5709 5707 5706 5704 5703 5701 5700 5699 5698 5698 5697 5697 5696 5696 5697 5697 5697 5697 5698 5698 5698 5699 5700 5701 5701 5702
5782 5781 5779 5777 5775 5773 5771 5770 5769 5768 5766 5764 5763 5762 5761 5760 5758 5757 5756 5755 5753 5752 5751 5750 5748 5747 5746 5745 5744 5743 5742 5741 5740 5740 5739 5738 5738 5738 5737 5736 5734 5733 5732 5730 5729 5728 5727 5726 5725 5724 5722 5721 5719 5718 5717 5715 5714 5713 5711 5710 5708 5706 5705 5704 5702 5701 5700 5698 5697 5696 5696 5695 5695 5695 5695 5695 5695 5695 5696 5696 5696 5696 5697 5698 5699 5700
5780 5779 5778 5777 5775 5773 5771 5769 5768 5767 5765 5763 5762 5761 5760 5758 5757 5756 5755 5753 5752 5750 5749 5748 5746 5745 5744 5743 5742 5741 5740 5740 5739 5738 5737 5735 5735 5735 5735 5734 5733 5732 5730 5728 5727 5726 5725 5724 5723 5722 5721 5719 5718 5716 5715 5714 5713 5712 5711 5709 5708 5706 5704 5703 5702 5700 5699 5698 5696 5695 5694 5693 5693 5693 5693 5693 5693 5693 5693 5694 5694 5694 5694 5695 5696 5697
5778 5778 5776 5775 5774 5772 5770 5769 5767 5766 5764 5762 5760 5759 5758 5757 5755 5754 5752 5751 5750 5749 5747 5746 5745 5743 5742 5742 5741 5740 5739 5738 5737 5736 5735 5734 5733 5733 5732 5731 5730 5729 5728 5726 5725 5724 5723 5722 5721 5720 5719 5718 5716 5715 5714 5713 5712 5711 5710 5709 5707 5705 5704 5703 5701 5700 5699 5697 5696 5694 5693 5692 5691 5691 5690 5690 5690 5691 5691 5691 5691 5692 5692 5692 5693 5693
5777 5776 5774 5772 5771 5770 5769 5767 5766 5765 5763 5761 5759 5758 5756 5755 5754 5752 5751 5749 5748 5747 5746 5744 5743 5742 5741 5740 5739 5738 5737 5737 5736 5735 5733 5732 5732 5731 5730 5728 5727 5726 5725 5724 5723 5722 5721 5720 5719 5718 5717 5716 5715 5714 5713 5712 5711 5710 5709 5708 5706 5705 5703 5702 5701 5700 5698 5697 5695 5694 5692 5691 5689 5689 5688 5688 5688 5688 5688 5688 5689 5689 5689 5689 5690 5690
5776 5774 5772 5771 5770 5768 5767 5766 5765 5763 5762 5759 5758 5756 5754 5753 5752 5751 5749 5747 5746 5745 5744 5743 5742 5740 5739 5738 5737 5736 5736 5735 5734 5733 5732 5731 5730 5729 5728 5727 5725 5724 5723 5722 5721 5720 5720 5719 5717 5716 5715 5715 5714 5713 5712 5710 5710 5709 5708 5707 5706 5704 5703 5701 5700 5699 5698 5696 5695 5693 5691 5690 5688 5687 5686 5685 5685 5685 5685 5686 5686 5686 5687 5687 5687 5688
5774 5772 5770 5769 5768 5767 5765 5764 5763 5761 5760 5758 5756 5755 5753 5751 5749 5748 5747 5745 5743 5742 5742 5741 5739 5738 5737 5736 5735 5734 5734 5733 5732 5731 5730 5729 5728 5727 5726 5725 5724 5723 5721 5720 5719 5718 5717 5716 5716 5715 5714 5713 5713 5712 5711 5709 5709 5708 5707 5706 5704 5703 5702 5701 5699 5698 5697 5695 5694 5692 5691 5689 5688 5686 5685 5684 5684 5683 5683 5683 5684 5684 5685 5685 5685 5685
5772 5771 5769 5767 5766 5765 5764 5762 5760 5759 5757 5756 5755 5753 5751 5749 5747 5745 5745 5743 5742 5740 5739 5738 5737 5735 5734 5733 5733 5732 5731 5731 5730 5729 5728 5727 5726 5726 5725 5724 5722 5721 5720 5718 5717 5716 5715 5714 5714 5713 5712 5712 5711 5711 5710 5709 5708 5707 5706 5704 5703 5702 5701 5700 5698 5697 5696 5694 5693 5691 5690 5689 5687 5686 5685 5684 5683 5682 5682 5682 5682 5683 5683 5684 5684 5683
5771 5770 5768 5766 5764 5763 5761 5760 5758 5756 5755 5753 5752 5751 5749 5747 5745 5743 5742 5741 5739 5738 5737 5736 5734 5733 5731 5731 5730 5729 5728 5728 5727 5727 5726 5725 5724 5723 5723 5722 5721 5720 5718 5717 5715 5715 5714 5713 5713 5712 5711 5710 5710 5709 5708 5708 5707 5705 5704 5703 5702 5701 5700 5698 5697 5696 5695 5693 5692 5691 5689 5688 5687 5686 5685 5684 5683 5682 5682 5682 5682 5682 5682 5683 5682 5682
5769 5768 5766 5764 5762 5760 5759 5757 5756 5754 5753 5751 5749 5748 5746 5745 5743 5741 5739 5738 5736 5735 5734 5733 5731 5730 5729 5728 5727 5727 5726 5725 5724 5724 5723 5722 5721 5721 5720 5719 5719 5718 5717 5715 5714 5713 5712 5712 5711 5710 5710 5709 5709 5708 5707 5706 5705 5705 5704 5702 5701 5700 5699 5698 5696 5695 5694 5692 5691 5690 5689 5688 5687 5686 5685 5684 5683 5682 5682 5682 5682 5682 5682 5682 5681 5681
5767 5765 5764 5762 5760 5758 5756 5754 5753 5751 5750 5749 5747 5745 5744 5742 5740 5738 5736 5735 5733 5732 5730 5729 5728 5727 5726 5725 5724 5724 5723 5722 5721 5721 5721 5720 5719 5718 5718 5717 5717 5716 5715 5714 5713 5712 5711 5710 5709 5709 5709 5708 5708 5707 5706 5706 5705 5704 5703 5702 5701 5700 5699 5698 5696 5694 5692 5691 5690 5689 5688 5687 5687 5686 5685 5684 5683 5682 5682 5681 5681 5681 5681 5681 5681 5680
5764 5763 5761 5760 5758 5756 5754 5752 5749 5748 5746 5745 5745 5743 5741 5739 5738 5736 5734 5732 5731 5729 5727 5726 5725 5724 5723 5722 5721 5720 5720 5719 5718 5718 5718 5718 5717 5716 5715 5714 5714 5714 5713 5712 5711 5710 5710 5709 5708 5708 5707 5707 5706 5706 5705 5705 5704 5703 5702 5701 5700 5699 5698 5697 5695 5693 5692 5690 5689 5688 5688 5687 5686 5686 5685 5684 5683 5682 5682 5681 5681 5681 5680 5680 5680 5680
5762 5760 5759 5757 5756 5754 5752 5750 5747 5745 5743 5742 5741 5740 5738 5736 5734 5733 5731 5729 5727 5726 5724 5723 5722 5721 5720 5719 5718 5717 5716 5716 5716 5715 5715 5715 5715 5714 5713 5712 5712 5712 5711 5710 5709 5708 5708 5708 5707 5706 5705 5705 5705 5704 5704 5703 5702 5702 5701 5700 5699 5699 5697 5696 5695 5693 5691 5690 5688 5688 5687 5687 5686 5685 5685 5684 5683 5682 5682 5681 5681 5680 5680 5680 5679 5679
5759 5757 5756 5755 5753 5751 5749 5747 5745 5744 5741 5739 5738 5737 5736 5734 5731 5729 5728 5726 5724 5722 5721 5719 5718 5717 5716 5716 5715 5714 5713 5713 5713 5712 5712 5712 5712 5712 5711 5711 5710 5709 5709 5708 5707 5706 5706 5706 5705 5704 5703 5703 5703 5702 5702 5701 5701 5700 5700 5699 5698 5698 5697 5696 5694 5693 5691 5690 5688 5687 5686 5686 5685 5685 5684 5683 5683 5682 5682 5681 5681 5680 5680 5679 5679 5679
5756 5755 5753 5752 5751 5749 5747 5744 5743 5742 5739 5737 5735 5734 5733 5732 5729 5727 5725 5723 5721 5718 5717 5716 5715 5714 5713 5712 5712 5711 5710 5710 5709 5709 5708 5708 5709 5709 5709 5709 5708 5707 5706 5706 5705 5704 5703 5703 5702 5702 5701 5701 5700 5700 5700 5699 5699 5699 5698 5698 5697 5696 5696 5695 5694 5692 5691 5690 5688 5687 5686 5685 5685 5684 5684 5683 5683 5682 5682 5681 5681 5680 5680 5679 5679 5679
5753 5752 5751 5749 5748 5746 5743 5741 5740 5739 5737 5735 5733 5731 5729 5728 5726 5724 5722 5721 5718 5716 5713 5712 5712 5711 5710 5709 5708 5708 5707 5707 5706 5705 5705 5704 5705 5705 5706 5706 5705 5704 5704 5703 5703 5702 5701 5700 5700 5699 5699 5699 5698 5698 5698 5697 5697 5697 5697 5696 5696 5695 5694 5694 5693 5692 5691 5690 5688 5687 5686 5685 5684 5684 5683 5683 5682 5682 5682 5681 5681 5681 5680 5680 5679 5679
5750 5749 5747 5746 5745 5743 5741 5738 5736 5735 5734 5732 5730 5728 5726 5724 5723 5721 5719 5717 5716 5714 5711 5710 5709 5708 5707 5706 5705 5705 5704 5703 5703 5702 5701 5701 5701 5702 5702 5702 5702 5701 5701 5700 5700 5700 5699 5698 5698 5697 5697 5697 5696 5696 5696 5695 5695 5695 5695 5695 5694 5694 5693 5693 5692 5691 5690 5689 5688 5687 5686 5685 5684 5683 5683 5682 5682 5682 5681 5681 5681 5681 5680 5680 5680 5679
5748 5746 5744 5743 5742 5740 5738 5735 5733 5731 5730 5729 5727 5725 5723 5721 5719 5717 5715 5714 5712 5711 5709 5707 5706 5705 5704 5703 5702 5701 5701 5700 5699 5699 5698 5698 5698 5698 5699 5699 5699 5698 5698 5697 5697 5697 5697 5696 5696 5695 5695 5694 5694 5694 5694 5694 5693 5693 5693 5693 5692 5692 5692 5691 5691 5690 5690 5689 5688 5687 5686 5685 5684 5683 5683 5682 5682 5681 5681 5681 5680 5680 5680 5680 5680 5679
5745 5744 5741 5739 5738 5736 5734 5732 5730 5728 5726 5725 5723 5722 5720 5718 5716 5714 5712 5710 5709 5707 5705 5704 5703 5702 5701 5700 5699 5698 5698 5697 5696 5695 5695 5695 5694 5694 5695 5695 5695 5695 5694 5694 5693 5693 5693 5693 5693 5693 5693 5692 5692 5692 5692 5692 5692 5691 5691 5691 5690 5690 5690 5690 5690 5689 5689 5688 5687 5686 5686 5685 5684 5683 5683 5682 5681 5681 5681 5680 5680 5680 5680 5680 5679 5679
5742 5740 5738 5736 5734 5733 5731 5729 5727 5726 5723 5721 5720 5718 5716 5715 5713 5711 5709 5707 5705 5703 5702 5701 5700 5699 5698 5697 5696 5696 5695 5694 5693 5692 5692 5691 5690 5690 5691 5691 5691 5691 5691 5691 5690 5690 5690 5690 5690 5690 5690 5690 5689 5689 5689 5689 5689 5689 5688 5688 5688 5688 5688 5688 5688 5688 5687 5687 5686 5686 5685 5684 5684 5683 5682 5682 5681 5681 5680 5680 5680 5680 5679 5679 5679 5679